Content
SEND FEEDBACK

Daily
Averages
Monthly
Summary
France

BAREGES, FRANCE


Home > Europe > France
Elevation: 9383 feet     Latitude: 42 54N     Longitude: 000 06E

WEATHER
 
SELECT A DAY
Number of Records: 205,344;   Date Range: 7/1/96 - 12/26/14
 
SHARE

PRINT THIS DATA

[ ← Previous Day ]
WEATHER ALMANAC - FEBRUARY 13, 2013
[ Next Day → ]
[ °C ]   °F
Weather ElementAverageHighLow
Temperature42.7 °F48.2 °F (1:00 pm)37.4 °F (4:00 am)
Dewpoint35.7 °F39.2 °F (10:00 pm)32 °F (12:30 pm)
Humidity76.9 %93 % (2:30 am)48 % (1:00 pm)
Barometer30.15 in30.24 in (7:00 pm)30.06 in (12:30 am)
Wind Speed5.4 mph9.2 mph (1:30 am)
Weather ElementAverage
Visibility8.4 mi
Wind DirectionSW (222.2 °)

Weather ElementTotal
Precipitation---
Heating Degree Days22.2 (Base 65)
Averaged from 51 records on February 13, 2013
WEATHER CONDITIONS BREAKOUT
WIND DIRECTION BREAKOUT
WEATHER BY HOUR - FEBRUARY 13, 2013
[ °C ]   °F
Local TimeTemperatureDewpointHumidityBarometerVisibilityWind DirectionWind SpeedGust SpeedPrecipitationEventsConditions
12:30 AM41.0 °F37.4 °F87 %30.06 in6.2 miWest (260°)6.9 mphMostly Cloudy
1:00 AM41.0 °F37.0 °F80 %30.12 in28.0 miWest (270°)6.9 mphRainLight Rain
1:00 AM41.0 °F37.4 °F87 %30.06 in6.2 miWest (270°)6.9 mphRainLight Rain
1:30 AM41.0 °F37.4 °F87 %30.09 in6.2 miWest (270°)9.2 mphRainLight Rain
2:00 AM41.0 °F37.4 °F87 %30.09 in6.2 miWest (260°)8.1 mphRainLight Rain
2:30 AM39.2 °F37.4 °F93 %30.09 in6.2 miWSW (250°)5.8 mphOvercast
3:00 AM39.2 °F35.6 °F87 %30.09 in6.2 miWSW (240°)8.1 mphMostly Cloudy
3:30 AM39.2 °F35.6 °F87 %30.09 in6.2 miSW (230°)9.2 mphOvercast
4:00 AM37.4 °F35.6 °F93 %30.09 in6.2 miSW (220°)5.8 mphOvercast
4:30 AM37.4 °F33.8 °F87 %30.09 in6.2 miWSW (240°)4.6 mphOvercast
5:00 AM37.4 °F33.8 °F87 %30.09 in6.2 miVariable3.5 mphOvercast
5:30 AM37.4 °F33.8 °F87 %30.09 in6.2 miSW (220°)2.3 mphOvercast
6:00 AM37.4 °F33.8 °F87 %30.09 in6.2 miSW (220°)5.8 mphOvercast
6:30 AM37.4 °F35.6 °F93 %30.09 in6.2 miVariable2.3 mphOvercast
7:00 AM38.0 °F35.0 °F82 %30.17 in37.0 miSSW (210°)2.3 mphClear
7:00 AM37.4 °F33.8 °F87 %30.12 in6.2 miSSW (210°)2.3 mphOvercast
7:30 AM37.4 °F33.8 °F87 %30.12 in6.2 miVariable2.3 mphOvercast
8:00 AM37.4 °F35.6 °F93 %30.12 in6.2 miSSW (200°)5.8 mphOvercast
8:30 AM37.4 °F35.6 °F93 %30.12 in6.2 miSouth (180°)5.8 mphOvercast
9:00 AM39.2 °F35.6 °F87 %30.12 in6.2 miSouth (170°)4.6 mphOvercast
9:30 AM39.2 °F35.6 °F87 %30.15 in6.2 miSouth (180°)3.5 mphOvercast
10:00 AM41.0 °F37.4 °F87 %30.15 in6.2 miVariable3.5 mphOvercast
10:30 AM42.8 °F37.4 °F81 %30.15 in6.2 miSSW (200°)3.5 mphOvercast
11:00 AM44.6 °F33.8 °F66 %30.15 in6.2 miSSW (210°)3.5 mphOvercast
11:30 AM46.4 °F33.8 °F62 %30.15 in6.2 miSSW (210°)4.6 mphOvercast
12:00 PM46.4 °F33.8 °F62 %30.18 in6.2 miWest (270°)4.6 mphOvercast
12:30 PM46.4 °F32.0 °F57 %30.18 in6.2 miVariable3.5 mphOvercast
1:00 PM47.0 °F33.0 °F48 %30.21 in37.0 miWNW (300°)4.6 mphClear
1:00 PM48.2 °F33.8 °F58 %30.18 in6.2 miWNW (300°)4.6 mphOvercast
1:30 PM48.2 °F33.8 °F58 %30.18 in6.2 miWest (270°)6.9 mphOvercast
2:00 PM48.2 °F33.8 °F58 %30.15 in6.2 miWNW (290°)5.8 mphOvercast
2:30 PM48.2 °F33.8 °F58 %30.15 in6.2 miNW (310°)6.9 mphOvercast
3:00 PM48.2 °F33.8 °F58 %30.15 in6.2 miWNW (300°)6.9 mphOvercast
3:30 PM48.2 °F33.8 °F58 %30.18 in6.2 miWest (280°)6.9 mphOvercast
4:00 PM48.2 °F33.8 °F58 %30.18 in6.2 miWNW (290°)9.2 mphOvercast
4:30 PM46.4 °F37.4 °F71 %30.18 in6.2 miWNW (300°)6.9 mphOvercast
5:00 PM46.4 °F37.4 °F71 %30.18 in6.2 miWNW (300°)8.1 mphOvercast
5:30 PM46.4 °F35.6 °F66 %30.18 in6.2 miWest (270°)5.8 mphOvercast
6:00 PM46.4 °F37.4 °F71 %30.18 in6.2 miWNW (290°)5.8 mphOvercast
6:30 PM44.6 °F37.4 °F76 %30.18 in6.2 miWest (280°)5.8 mphOvercast
7:00 PM45.0 °F35.0 °F58 %30.24 in37.0 miWest (280°)6.9 mphClear
7:00 PM44.6 °F35.6 °F71 %30.21 in6.2 miWest (280°)6.9 mphOvercast
7:30 PM44.6 °F35.6 °F71 %30.21 in6.2 miWest (260°)5.8 mphOvercast
8:00 PM44.6 °F37.4 °F76 %30.21 in6.2 miWest (270°)8.1 mphOvercast
8:30 PM44.6 °F37.4 °F76 %30.21 in6.2 miWest (280°)8.1 mphOvercast
9:00 PM44.6 °F37.4 °F76 %30.21 in6.2 miWest (260°)3.5 mphOvercast
9:30 PM44.6 °F37.4 °F76 %30.21 in6.2 miWest (260°)4.6 mphOvercast
10:00 PM42.8 °F39.2 °F87 %30.21 in6.2 miSSW (200°)4.6 mphRainLight Rain
10:30 PM42.8 °F39.2 °F87 %30.21 in6.2 miSW (220°)3.5 mphOvercast
11:00 PM42.8 °F39.2 °F87 %30.21 in6.2 miWSW (250°)3.5 mphOvercast
11:30 PM42.8 °F39.2 °F87 %30.21 in6.2 miCalmRainLight Rain
Hourly data recorded from LFBT, located miles away from Bareges, France







STORIES FROM OUR PARTNERS